Papa, Hungary

5:56 AM CET on February 07, 2016 (GMT +0100)
Papa

Weather History for LHPA - October, 2012

Change the Weather History Date:

Saturday, October 13, 2012

  Actual Average Record
Temperature  
Mean Temperature 52 °F -  
Max Temperature 57 °F - - ()
Min Temperature 48 °F - - ()
Degree Days  
Heating Degree Days 12    
Growing Degree Days 2 (Base 50)    
Moisture  
Dew Point 45 °F    
Average Humidity 77    
Maximum Humidity 94    
Minimum Humidity 48    
Precipitation  
Precipitation 0.00 in - - ()
Sea Level Pressure  
Sea Level Pressure 29.98 in    
Wind  
Wind Speed 3 mph ()    
Max Wind Speed 13 mph    
Max Gust Speed -    
Visibility 5.8 miles    
Events Rain    
T = Trace of Precipitation, MM = Missing Value Source: Averaged Metar Reports

Daily Weather History Graph

Daily Weather History Graph

Search for Another Location

Airport or City:

Trip Planner

Search our weather history database for the weather conditions in past years. The results will help you decide how hot, cold, wet, or windy it might be!

Date:

Astronomy

Oct. 13, 2012 Rise Set
Actual Time 7:05 AM CEST 6:05 PM CEST
Civil Twilight 6:35 AM CEST 6:36 PM CEST
Nautical Twilight 5:59 AM CEST 7:11 PM CEST
Astronomical Twilight 5:24 AM CEST 7:47 PM CEST
Moon 4:27 AM CEST (10/13) 4:44 PM CEST (10/13)
Length of Visible Light 12h 01m
Length of Day
11h 00m
Waning Crescent, 6% of the Moon is Illuminated
Oct 13
Waning Crescent
Oct 15
New
Oct 22
First Quarter
Oct 29
Full
Nov 7
Last Quarter

Hourly Weather History & Observations

Time (CEST) Temp. Dew Point Humidity Pressure Visibility Wind Dir Wind Speed Gust Speed Precip Events Conditions
12:15 AM 50.0 °F 44.6 °F 82% 29.98 in 6.2 mi SE 2.2 mph - N/A   Scattered Clouds
1:15 AM 48.2 °F 44.6 °F 87% 29.98 in 6.2 mi SSW 2.2 mph - N/A   Scattered Clouds
1:45 AM 50.0 °F 46.4 °F 87% 29.98 in 6.2 mi SSE 2.2 mph - N/A   Mostly Cloudy
1:46 AM 50.0 °F 46.4 °F 87% 29.98 in 6.2 mi SSE 2.2 mph - N/A   Mostly Cloudy
2:15 AM 50.0 °F 46.4 °F 87% 29.98 in 6.2 mi Calm Calm - N/A   Overcast
2:45 AM 50.0 °F 46.4 °F 87% 29.98 in 6.2 mi Calm Calm - N/A   Overcast
3:15 AM 50.0 °F 46.4 °F 87% 29.98 in 6.2 mi SSE 2.2 mph - N/A   Mostly Cloudy
3:45 AM - - N/A% - 3.1 mi Variable 4.5 mph - N/A Rain Rain
4:45 AM 50.0 °F 48.2 °F 94% 29.98 in 5.0 mi SSE 2.2 mph - N/A   Mostly Cloudy
5:15 AM 50.0 °F 48.2 °F 94% 30.01 in 5.0 mi SSW 2.2 mph - N/A   Mostly Cloudy
5:45 AM 50.0 °F 48.2 °F 94% 30.01 in 5.0 mi South 2.2 mph - N/A   Mostly Cloudy
6:15 AM 50.0 °F 48.2 °F 94% 30.01 in 5.0 mi Calm Calm - N/A   Overcast
6:45 AM - - N/A% - 3.1 mi Variable 4.5 mph - N/A Rain Rain
7:15 AM 50.0 °F 48.2 °F 94% 30.01 in 5.0 mi Calm Calm - N/A   Overcast
7:45 AM 51.8 °F 50.0 °F 94% 30.04 in 5.0 mi Calm Calm - N/A   Overcast
8:15 AM 53.6 °F 50.0 °F 88% 30.04 in 5.0 mi North 4.5 mph - N/A   Overcast
8:45 AM 53.6 °F 50.0 °F 88% 30.04 in 5.0 mi North 4.5 mph - N/A   Overcast
9:15 AM 53.6 °F 50.0 °F 88% 30.06 in 5.0 mi North 8.9 mph - N/A   Overcast
9:45 AM - - N/A% - 6.2 mi NNW 8.9 mph - N/A   Mostly Cloudy
10:45 AM 57.2 °F 42.8 °F 59% 30.06 in 6.2 mi North 11.2 mph - N/A   Mostly Cloudy
11:45 AM 57.2 °F 41.0 °F 55% 30.06 in 6.2 mi North 13.4 mph - N/A   Mostly Cloudy
12:15 PM 57.2 °F 42.8 °F 59% 30.04 in 6.2 mi North 8.9 mph - N/A   Mostly Cloudy
12:45 PM - - N/A% - 6.2 mi Variable 4.5 mph - N/A   Overcast
1:15 PM 57.2 °F 37.4 °F 48% 30.04 in 6.2 mi NNW 13.4 mph - N/A   Mostly Cloudy
2:45 PM 57.2 °F 41.0 °F 55% 30.01 in 6.2 mi North 6.7 mph - N/A   Mostly Cloudy
3:00 PM - - N/A% - 6.2 mi Variable 4.5 mph - N/A   Overcast
3:15 PM 57.2 °F 41.0 °F 55% 30.01 in 6.2 mi North 2.2 mph - N/A   Mostly Cloudy
3:37 PM 57.2 °F 41.0 °F 55% 29.98 in 6.2 mi NW 2.2 mph - N/A Rain Light Rain
3:45 PM - - N/A% - 6.2 mi Variable 4.5 mph - N/A   Overcast
3:50 PM 57.2 °F 41.0 °F 55% 29.98 in 6.2 mi West 4.5 mph - N/A   Mostly Cloudy
4:45 PM 55.4 °F 39.2 °F 54% 29.95 in 6.2 mi WNW 2.2 mph - N/A   Mostly Cloudy
5:15 PM 55.4 °F 41.0 °F 58% 29.95 in 6.2 mi Calm Calm - N/A   Mostly Cloudy
5:45 PM 55.4 °F 42.8 °F 63% 29.95 in - Calm Calm - N/A   Clear
6:15 PM 53.6 °F 42.8 °F 67% 29.95 in - West 2.2 mph - N/A   Clear
6:45 PM - - N/A% - 6.2 mi SSE 6.7 mph - N/A   Overcast
7:15 PM 51.8 °F 44.6 °F 76% 29.95 in - South 2.2 mph - N/A   Clear
7:45 PM 50.0 °F 42.8 °F 76% 29.92 in - Calm Calm - N/A   Clear
8:15 PM 50.0 °F 46.4 °F 87% 29.95 in - SE 4.5 mph - N/A   Clear
8:45 PM 50.0 °F 44.6 °F 82% 29.92 in - SSE 4.5 mph - N/A   Clear
9:15 PM 50.0 °F 44.6 °F 82% 29.92 in - Calm Calm - N/A   Clear
9:45 PM - - N/A% - 6.2 mi SSE 6.7 mph - N/A   Overcast
10:15 PM 50.0 °F 46.4 °F 87% 29.92 in 6.2 mi SE 2.2 mph - N/A   Mostly Cloudy
10:45 PM 51.8 °F 44.6 °F 76% 29.89 in 6.2 mi SE 2.2 mph - N/A   Mostly Cloudy
11:15 PM 50.0 °F 46.4 °F 87% 29.89 in 6.2 mi Calm Calm - N/A   Mostly Cloudy
11:45 PM 51.8 °F 46.4 °F 82% 29.89 in 6.2 mi SE 2.2 mph - N/A   Mostly Cloudy